Tiempo atmosférico en la estación meteorológica de Agaete, Las Palmas (5 m.)



Fecha
DESCASC
Temp. máxima en grados centígrados (hora)
DESCASC
Temp. mínima en grados centígrados (hora)
DESCASC
Temp. media en grados centígrados
DESCASC
Racha de viento máxima en m/sg (hora)
DESCASC
Velocidad máxima media en intervalos de 10 minutos(hora)
DESCASC
Precipitaciones diarias en mm
DESCASC
Precipitaciones de 00:00 a 06:00 en mm
DESCASC
Precipitaciones de 06:00 a 12:00 en mm
DESCASC
Precipitaciones de 12:00 a 18:00 en mm
DESCASC
Precipitaciones de 18:00 a 24:00 en mm
DESCASC
06-12-2018 26.9 (22:10) 20 (00:40) 23.4 6.94 (22:10) 4.72 (09:10) 0 0 0 0 0
05-12-2018 25.9 (17:00) 19.8 (00:40) 22.8 6.67 (20:00) 4.17 (20:50) 0 0 0 0 0
04-12-2018 24.9 (16:40) 18 (06:00) 21.4 6.11 (23:10) 3.89 (23:20) 0 0 0 0 0
03-12-2018 23.2 (15:40) 17 (00:00) 20.1 6.39 (04:20) 3.61 (01:00) 0 0 0 0 0
02-12-2018 22.4 (16:20) 17 (00:00) 19.7 13.33 (06:50) 8.61 (06:40) 0 0 0 0 0
01-12-2018 22.5 (13:20) 18.6 (00:00) 20.6 14.44 (02:10) 8.61 (16:10) 0 0 0 0 0
30-11-2018 23.3 (14:40) 18.2 (00:00) 20.8 13.06 (21:10) 7.78 (22:50) 0 0 0 0 0
29-11-2018 24.8 (15:30) 17.3 (00:00) 21 10 (23:50) 4.72 (21:50) 0 0 0 0 0
28-11-2018 23.8 (15:10) 16.9 (00:00) 20.3 5.83 (21:10) 3.89 (03:10) 0 0 0 0 0
27-11-2018 23.1 (11:30) 18.8 (00:00) 20.9 13.89 (22:30) 8.61 (21:50) 0 0 0 0 0
26-11-2018 23.7 (14:20) 18.8 (23:50) 21.3 9.44 (11:50) 6.67 (11:20) 0 0 0 0 0
25-11-2018 23.7 (17:10) 18.4 (00:00) 21.1 6.94 (15:50) 5.28 (15:50) 0 0 0 0 0
24-11-2018 21.9 (10:50) 15.8 (00:00) 18.8 9.17 (17:10) 6.39 (17:10) 0 0 0 0 0
23-11-2018 20.3 (16:30) 15.3 (00:00) 17.8 13.61 (04:50) 9.17 (04:50) 0 0 0 0 0
22-11-2018 19.6 (15:00) 15.9 (00:00) 17.8 12.78 (18:10) 8.89 (18:10) 0 0 0 0 0
21-11-2018 23.7 (09:50) 17.2 (00:00) 20.5 16.11 (15:10) 11.11 (14:50) 0 0 0 0 0
20-11-2018 23.2 (09:50) 17.4 (00:00) 20.3 7.5 (18:10) 5 (18:20) 0 0 0 0 0
19-11-2018 21 (12:40) 17.4 (00:00) 19.2 10 (09:00) 7.5 (09:00) 0 0 0 0 0
18-11-2018 22.3 (11:30) 18.2 (00:00) 20.3 9.72 (15:10) 6.67 (22:20) 0 0 0 0 0
17-11-2018 23.2 (10:10) 18.5 (00:00) 20.9 17.22 (11:10) 12.22 (12:00) 0 0 0 0 0
16-11-2018 22.8 (16:30) 18.2 (00:00) 20.5 9.17 (23:59) 6.11 (23:59) 0 0 0 0 0
15-11-2018 21.8 (14:20) 17 (00:00) 19.4 8.89 (10:50) 7.22 (10:50) 0 0 0 0 0
14-11-2018 22 (14:00) 17.8 (00:00) 19.9 10.28 (01:10) 6.67 (19:10) 0 0 0 0 0
13-11-2018 21.5 (16:10) 17.6 (00:00) 19.6 12.5 (00:50) 6.94 (12:40) 0 0 0 0 0
12-11-2018 21.4 (15:20) 17.7 (00:00) 19.6 10.28 (21:30) 6.11 (23:20) 0 0 0 0 0
11-11-2018 23.5 (14:00) 19 (00:00) 21.3 8.89 (13:40) 6.39 (13:40) 0 0 0 0 0
10-11-2018 22.8 (15:40) 19.4 (00:00) 21.1 10.56 (13:50) 5.83 (16:50) 0 0 0 0 0
09-11-2018 23.5 (14:40) 19.5 (00:00) 21.5 12.5 (15:10) 7.78 (15:00) 0 0 0 0 0

Gráficas

Temp. máximas Temp. mínimas Temp. medias Precipitaciones Rachas de viento máximas Velocidades máximas media en intervalos de 10 minutos

Datos horarios

Fecha y hora oficial Temperatura (ºC) Velocidad del viento (km/h) Dirección del viento Racha (km/h) Dirección de racha Precipitación (mm) Presión (hPa) Tendencia (hPa) Humedad (%)
2018-12-08 23:00:00 19 11 Sudeste 22 Sudeste 0 -- -- 67
2018-12-08 22:00:00 18.9 12 Sudeste 24 Sudeste 0 -- -- 71
2018-12-08 21:00:00 19.1 8 Este 28 Nordeste 0 -- -- 76
2018-12-08 20:00:00 19.6 7 Este 23 Sudeste 0 -- -- 75
2018-12-08 19:00:00 20 9 Este 24 Este 0 -- -- 75
2018-12-08 18:00:00 20.6 17 Este 30 Nordeste 0 -- -- 74
2018-12-08 17:00:00 21.8 15 Nordeste 30 Este 0 -- -- 70
2018-12-08 16:00:00 22.8 16 Nordeste 36 Nordeste 0 -- -- 67
2018-12-08 15:00:00 22.6 18 Nordeste 34 Nordeste 0 -- -- 66
2018-12-08 14:00:00 22.6 17 Nordeste 28 Norte 0 -- -- 65
2018-12-08 13:00:00 22.3 5 Sudoeste 15 Sudoeste 0 -- -- 68
2018-12-08 12:00:00 21.7 9 Sudoeste 17 Este 0 -- -- 68
2018-12-08 11:00:00 22.2 7 Este 30 Nordeste 0 -- -- 62
2018-12-08 10:00:00 21.7 9 Este 35 Nordeste 0 -- -- 62
2018-12-08 09:00:00 20 13 Este 32 Este 0 -- -- 66
2018-12-08 08:00:00 18.7 8 Sudeste 22 Este 0 -- -- 73
2018-12-08 07:00:00 18.9 10 Sudeste 27 Sudeste 0 -- -- 69
2018-12-08 06:00:00 18.6 12 Sudeste 29 Este 0 -- -- 69
2018-12-08 05:00:00 19 14 Este 28 Sudeste 0 -- -- 65
2018-12-08 04:00:00 19.2 14 Sudeste 35 Sudeste 0 -- -- 68
2018-12-08 03:00:00 19.3 9 Sudeste 35 Este 0 -- -- 69
2018-12-08 02:00:00 19 12 Este 46 Este 0 -- -- 74
2018-12-08 01:00:00 19.2 26 Nordeste 52 Nordeste 0 -- -- 76
2018-12-08 00:00:00 19.2 29 Nordeste 50 Nordeste 0 -- -- 77
2018-12-07 23:00:00 19.1 32 Nordeste 55 Nordeste 0 -- -- 80
2018-12-07 22:00:00 19.3 22 Nordeste 40 Este 0 -- -- 80
2018-12-07 21:00:00 19.6 18 Nordeste 46 Nordeste 0 -- -- 78
2018-12-07 20:00:00 19.8 30 Nordeste 44 Nordeste 0 -- -- 80
2018-12-07 19:00:00 20.5 17 Nordeste 44 Nordeste 0 -- -- 77
2018-12-07 18:00:00 21.1 31 Nordeste 44 Nordeste 0 -- -- 77
2018-12-07 17:00:00 23.1 28 Nordeste 41 Este 0 -- -- 68
2018-12-07 16:00:00 24 11 Este 31 Nordeste 0 -- -- 69
2018-12-07 15:00:00 25.4 4 Sudoeste 12 Sur 0 -- -- 63
2018-12-07 14:00:00 24.8 7 Sur 10 Sur 0 -- -- 51
2018-12-07 13:00:00 24.7 3 Oeste 11 Sur 0 -- -- 53
2018-12-07 12:00:00 24.4 6 Sur 12 Norte 0 -- -- 54
2018-12-07 11:00:00 23.8 6 Norte 11 Norte 0 -- -- 49
2018-12-07 10:00:00 23.6 2 Noroeste 12 Este 0 -- -- 45
2018-12-07 09:00:00 22.2 8 Este 12 Este 0 -- -- 39
2018-12-07 08:00:00 21.4 4 Sudeste 10 Sudeste 0 -- -- 52
2018-12-07 07:00:00 22.5 5 Este 13 Sudoeste 0 -- -- 31
2018-12-07 06:00:00 22.9 11 Sur 15 Sur 0 -- -- 49
2018-12-07 05:00:00 23.7 0 Calma 22 Este 0 -- -- 26
2018-12-07 04:00:00 24.1 3 Este 24 Sudeste 0 -- -- 28
2018-12-07 03:00:00 27 15 Este 30 Este 0 -- -- 16
2018-12-07 02:00:00 27.3 12 Este 31 Sudeste 0 -- -- 17
2018-12-07 01:00:00 27.2 14 Sudeste 27 Sudeste 0 -- -- 19
2018-12-07 00:00:00 23.3 12 Este 24 Nordeste 0 -- -- 27
2018-12-06 23:00:00 24.1 14 Nordeste 25 Este 0 -- -- 25
2018-12-06 22:00:00 25.7 14 Este 21 Este 0 -- -- 21
2018-12-06 21:00:00 22.7 0 Calma 12 Nordeste 0 -- -- 30
2018-12-06 20:00:00 23.4 7 Este 13 Este 0 -- -- 27
2018-12-06 19:00:00 23.2 12 Este 17 Este 0 -- -- 31
2018-12-06 18:00:00 22.5 3 Sudeste 9 Norte 0 -- -- 53
2018-12-06 17:00:00 23.7 0 Calma 8 Sudeste 0 -- -- 49
2018-12-06 16:00:00 25.2 2 Sudeste 9 Norte 0 -- -- 44
2018-12-06 15:00:00 24.2 3 Oeste 12 Sur 0 -- -- 47
2018-12-06 14:00:00 24.8 3 Sudoeste 12 Sudoeste 0 -- -- 43
2018-12-06 13:00:00 24.1 0 Calma 8 Sudeste 0 -- -- 51
2018-12-06 12:00:00 24.9 3 Sudoeste 6 Sudoeste 0 -- -- 39
2018-12-06 11:00:00 24.9 4 Sur 16 Sudeste 0 -- -- 46
2018-12-06 10:00:00 24.4 12 Sudeste 24 Este 0 -- -- 31
2018-12-06 09:00:00 23.2 15 Este 23 Este 0 -- -- 24
2018-12-06 08:00:00 22.8 6 Este 19 Este 0 -- -- 25
2018-12-06 07:00:00 22.6 13 Este 23 Este 0 -- -- 25
2018-12-06 06:00:00 21.6 8 Este 12 Este 0 -- -- 32
2018-12-06 05:00:00 21.1 6 Sudoeste 11 Sur 0 -- -- 40
2018-12-06 04:00:00 22.7 8 Este 15 Este 0 -- -- 29
2018-12-06 03:00:00 21.8 8 Sudeste 17 Este 0 -- -- 36
2018-12-06 02:00:00 21.6 9 Sudeste 20 Este 0 -- -- 43
2018-12-06 01:00:00 20.1 6 Este 10 Este 0 -- -- 47
2018-12-06 00:00:00 20.8 3 Sur 13 Este 0 -- -- 39
2018-12-05 23:00:00 21.3 4 Este 20 Este 0 -- -- 37
2018-12-05 22:00:00 22.1 13 Este 23 Este 0 -- -- 36
2018-12-05 21:00:00 21.8 13 Este 21 Este 0 -- -- 38
2018-12-05 20:00:00 22 14 Este 24 Este 0 -- -- 39
2018-12-05 19:00:00 22 10 Este 16 Este 0 -- -- 41
2018-12-05 18:00:00 23.7 0 Calma 6 Noroeste 0 -- -- 46
2018-12-05 17:00:00 25.9 2 Sudoeste 9 Norte 0 -- -- 43
2018-12-05 16:00:00 24.7 5 Norte 13 Sudoeste 0 -- -- 53
2018-12-05 15:00:00 24.3 6 Sudeste 10 Sur 0 -- -- 48
2018-12-05 14:00:00 24.7 8 Sur 10 Sur 0 -- -- 51
2018-12-05 13:00:00 24 4 Sudoeste 8 Noroeste 0 -- -- 59
2018-12-05 12:00:00 23.5 3 Noroeste 6 Norte 0 -- -- 48
2018-12-05 11:00:00 24.3 0 Calma 6 Norte 0 -- -- 41
2018-12-05 10:00:00 25.8 2 Sudeste 10 Nordeste 0 -- -- 35
2018-12-05 09:00:00 22.7 3 Este 12 Este 0 -- -- 42
2018-12-05 08:00:00 20.4 4 Sudeste 15 Este 0 -- -- 48
2018-12-05 07:00:00 20.7 4 Este 14 Este 0 -- -- 39
2018-12-05 06:00:00 20.7 4 Este 15 Este 0 -- -- 39
2018-12-05 05:00:00 20.2 4 Sudeste 13 Este 0 -- -- 46
2018-12-05 04:00:00 21.2 6 Este 15 Nordeste 0 -- -- 39
2018-12-05 03:00:00 20.7 9 Este 21 Este 0 -- -- 46
2018-12-05 02:00:00 20.4 3 Este 21 Este 0 -- -- 43
2018-12-05 01:00:00 20.1 5 Este 7 Este 0 -- -- 46
2018-12-05 00:00:00 20.6 4 Este 22 Este 0 -- -- 41
2018-12-04 23:00:00 20.9 13 Este 21 Este 0 -- -- 42
2018-12-04 22:00:00 21.6 11 Este 20 Este 0 -- -- 42
2018-12-04 21:00:00 20.8 13 Este 17 Este 0 -- -- 46
2018-12-04 20:00:00 21.1 10 Este 14 Este 0 -- -- 48
2018-12-04 19:00:00 21.1 4 Este 7 Este 0 -- -- 53
2018-12-04 18:00:00 22.8 3 Sur 9 Sur 0 -- -- 62
2018-12-04 17:00:00 24.3 3 Sudoeste 18 Norte 0 -- -- 55
2018-12-04 16:00:00 23.7 11 Noroeste 17 Norte 0 -- -- 57
2018-12-04 15:00:00 22.8 12 Norte 14 Norte 0 -- -- 72
2018-12-04 14:00:00 22.2 6 Noroeste 8 Noroeste 0 -- -- 79
2018-12-04 13:00:00 22.5 6 Oeste 9 Sudoeste 0 -- -- 74
2018-12-04 12:00:00 22.3 5 Noroeste 12 Norte 0 -- -- 72
2018-12-04 11:00:00 22.4 5 Norte 6 Norte 0 -- -- 64
2018-12-04 10:00:00 22.7 4 Noroeste 11 Noroeste 0 -- -- 57
2018-12-04 09:00:00 23.5 3 Sudeste 5 Este 0 -- -- 44
2018-12-04 08:00:00 18.4 2 Nordeste 4 Este 0 -- -- 54
2018-12-04 07:00:00 18.7 2 Sudeste 5 Nordeste 0 -- -- 71
2018-12-04 06:00:00 18 3 Nordeste 5 Nordeste 0 -- -- 53
2018-12-04 05:00:00 19.1 3 Este 10 Sudeste 0 -- -- 47
2018-12-04 04:00:00 18.7 3 Sur 6 Nordeste 0 -- -- 50
2018-12-04 03:00:00 18.8 0 Calma 8 Este 0 -- -- 40
2018-12-04 02:00:00 18.7 5 Este 16 Nordeste 0 -- -- 41
2018-12-04 01:00:00 19.7 9 Este 13 Este 0 -- -- 38
2018-12-04 00:00:00 19 4 Sudeste 8 Este 0 -- -- 55
2018-12-03 23:00:00 18.8 4 Este 9 Este 0 -- -- 47
2018-12-03 22:00:00 18.9 6 Este 10 Este 0 -- -- 54
2018-12-03 21:00:00 19.3 5 Este 12 Este 0 -- -- 54
2018-12-03 20:00:00 19.3 9 Este 13 Este 0 -- -- 68
2018-12-03 19:00:00 20 2 Nordeste 5 Noroeste 0 -- -- 72
2018-12-03 18:00:00 21.4 4 Noroeste 5 Oeste 0 -- -- 72
2018-12-03 17:00:00 22.8 4 Noroeste 6 Noroeste 0 -- -- 66
2018-12-03 16:00:00 22.8 4 Noroeste 6 Noroeste 0 -- -- 67
2018-12-03 15:00:00 22.8 4 Sudoeste 7 Sudoeste 0 -- -- 69
2018-12-03 14:00:00 22.3 4 Sudoeste 7 Norte 0 -- -- 67
2018-12-03 13:00:00 21.4 5 Noroeste 9 Norte 0 -- -- 70
2018-12-03 12:00:00 21.2 3 Noroeste 11 Noroeste 0 -- -- 71
2018-12-03 11:00:00 20.8 9 Noroeste 11 Noroeste 0 -- -- 73
2018-12-03 10:00:00 21 4 Este 9 Sudeste 0 -- -- 57
2018-12-03 09:00:00 20.7 6 Sur 9 Este 0 -- -- 61
2018-12-03 08:00:00 17.6 3 Sudeste 14 Sudeste 0 -- -- 55
2018-12-03 07:00:00 18.7 10 Sudeste 21 Este 0 -- -- 49
2018-12-03 06:00:00 18.5 12 Sudeste 23 Este 0 -- -- 62
2018-12-03 05:00:00 18 9 Sudeste 23 Nordeste 0 -- -- 68
2018-12-03 04:00:00 17.4 8 Este 21 Este 0 -- -- 69
2018-12-03 03:00:00 17.7 8 Este 18 Sudeste 0 -- -- 70
2018-12-03 02:00:00 18.2 12 Este 19 Sudeste 0 -- -- 69
2018-12-03 01:00:00 18.2 13 Este 22 Este 0 -- -- 70
2018-12-03 00:00:00 18.5 12 Este 25 Este 0 -- -- 67
2018-12-02 23:00:00 18.2 9 Este 20 Este 0 -- -- 70
2018-12-02 22:00:00 18.5 9 Este 13 Este 0 -- -- 74
2018-12-02 21:00:00 19.4 9 Sudeste 17 Este 0 -- -- 74
2018-12-02 20:00:00 18.8 11 Este 18 Sudeste 0 -- -- 76
2018-12-02 19:00:00 19.4 10 Sudeste 18 Sudeste 0 -- -- 74
2018-12-02 18:00:00 20.4 8 Nordeste 21 Este 0 -- -- 70
2018-12-02 17:00:00 21.5 10 Nordeste 21 Nordeste 0 -- -- 68
2018-12-02 16:00:00 21.9 5 Sudoeste 9 Noroeste 0 -- -- 67
2018-12-02 15:00:00 21.6 5 Noroeste 9 Oeste 0 -- -- 69
2018-12-02 14:00:00 21.5 5 Sudoeste 12 Oeste 0 -- -- 69
2018-12-02 13:00:00 21 10 Oeste 17 Oeste 0 -- -- 72
2018-12-02 12:00:00 20.8 12 Oeste 15 Oeste 0 -- -- 72
2018-12-02 11:00:00 22.1 6 Sur 15 Sudeste 0 -- -- 61
2018-12-02 10:00:00 21.8 9 Sur 12 Este 0 -- -- 57
2018-12-02 09:00:00 20 13 Este 27 Este 0 -- -- 61
2018-12-02 08:00:00 19 19 Este 42 Este 0 -- -- 66
2018-12-02 07:00:00 19 26 Nordeste 48 Nordeste 0 -- -- 67
2018-12-02 06:00:00 18.8 19 Nordeste 38 Este 0 -- -- 68
2018-12-02 05:00:00 18.7 18 Nordeste 37 Nordeste 0 -- -- 68
2018-12-02 04:00:00 19.1 15 Nordeste 32 Nordeste 0 -- -- 68
2018-12-02 03:00:00 17.2 5 Nordeste 12 Nordeste 0 -- -- 63
2018-12-02 02:00:00 17.7 8 Este 20 Nordeste 0 -- -- 66
2018-12-02 01:00:00 19 7 Sudeste 31 Nordeste 0 -- -- 67
2018-12-02 00:00:00 19 10 Nordeste 27 Nordeste 0 -- -- 72
2018-12-01 23:00:00 19 16 Nordeste 35 Norte 0 -- -- 71
2018-12-01 22:00:00 19.6 23 Norte 36 Norte 0 -- -- 71
2018-12-01 21:00:00 20.3 18 Nordeste 31 Nordeste 0 -- -- 65
2018-12-01 20:00:00 20.7 15 Nordeste 30 Nordeste 0 -- -- 63
2018-12-01 19:00:00 21.2 12 Nordeste 37 Nordeste 0 -- -- 57
2018-12-01 18:00:00 21.3 21 Nordeste 49 Este 0 -- -- 68
2018-12-01 17:00:00 21.9 24 Nordeste 50 Nordeste 0 -- -- 67
2018-12-01 16:00:00 22 29 Nordeste 48 Nordeste 0 -- -- 69
2018-12-01 15:00:00 22.2 13 Este 40 Nordeste 0 -- -- 70
2018-12-01 14:00:00 21.5 12 Sudeste 24 Este 0 -- -- 71
2018-12-01 13:00:00 22.1 12 Sudoeste 20 Sudoeste 0 -- -- 72
2018-12-01 12:00:00 22.2 9 Sur 21 Sur 0 -- -- 68
2018-12-01 11:00:00 21.8 9 Sur 22 Este 0 -- -- 66
2018-12-01 10:00:00 21.9 9 Sudeste 26 Este 0 -- -- 61
2018-12-01 09:00:00 19.9 9 Este 19 Este 0 -- -- 56
2018-12-01 08:00:00 18.6 5 Sudeste 23 Sudeste 0 -- -- 65
2018-12-01 07:00:00 19 10 Este 18 Sudeste 0 -- -- 58
2018-12-01 06:00:00 19.1 7 Sudeste 32 Nordeste 0 -- -- 55
2018-12-01 05:00:00 19.8 20 Nordeste 36 Nordeste 0 -- -- 66
2018-12-01 04:00:00 19.4 15 Nordeste 35 Este 0 -- -- 65
2018-12-01 03:00:00 19 12 Nordeste 52 Nordeste 0 -- -- 67
2018-12-01 02:00:00 18.9 26 Nordeste 49 Nordeste 0 -- -- 69
2018-12-01 01:00:00 19 23 Nordeste 47 Nordeste 0 -- -- 70
2018-12-01 00:00:00 19.1 21 Nordeste 44 Este 0 -- -- 70
2018-11-30 23:00:00 19.2 24 Nordeste 46 Nordeste 0 -- -- 70
2018-11-30 22:00:00 19.2 24 Nordeste 47 Nordeste 0 -- -- 72
2018-11-30 21:00:00 19.3 25 Nordeste 40 Nordeste 0 -- -- 72
2018-11-30 20:00:00 19.5 25 Nordeste 41 Nordeste 0 -- -- 73
2018-11-30 19:00:00 19.6 21 Nordeste 37 Nordeste 0 -- -- 72
2018-11-30 18:00:00 20 21 Nordeste 36 Nordeste 0 -- -- 74
2018-11-30 17:00:00 21.4 18 Nordeste 34 Este 0 -- -- 69
2018-11-30 16:00:00 22.3 19 Nordeste 33 Nordeste 0 -- -- 67
2018-11-30 15:00:00 22.6 17 Nordeste 30 Este 0 -- -- 67
2018-11-30 14:00:00 22.2 18 Nordeste 36 Nordeste 0 -- -- 68
2018-11-30 13:00:00 22.3 7 Este 23 Nordeste 0 -- -- 67
2018-11-30 12:00:00 22.8 12 Este 32 Nordeste 0 -- -- 65
2018-11-30 11:00:00 21.7 10 Este 30 Nordeste 0 -- -- 66
2018-11-30 10:00:00 21.9 5 Sudoeste 20 Sur 0 -- -- 61
2018-11-30 09:00:00 21.1 5 Sur 21 Nordeste 0 -- -- 63
2018-11-30 08:00:00 18.7 4 Sur 19 Nordeste 0 -- -- 73
2018-11-30 07:00:00 18.7 13 Nordeste 31 Nordeste 0 -- -- 76
2018-11-30 06:00:00 18.8 21 Nordeste 37 Nordeste 0 -- -- 80
2018-11-30 05:00:00 18.7 18 Nordeste 28 Nordeste 0 -- -- 81
2018-11-30 04:00:00 18.9 2 Sudeste 19 Sudeste 0 -- -- 72
2018-11-30 03:00:00 18.9 4 Nordeste 14 Sur 0 -- -- 69
2018-11-30 02:00:00 19.1 9 Sudeste 27 Nordeste 0 -- -- 73
2018-11-30 01:00:00 19.4 14 Este 33 Este 0 -- -- 80
2018-11-30 00:00:00 19.6 14 Este 36 Nordeste 0 -- -- 79
2018-11-29 23:00:00 19.9 13 Nordeste 29 Nordeste 0 -- -- 78
2018-11-29 22:00:00 19.8 17 Nordeste 35 Nordeste 0 -- -- 78
2018-11-29 21:00:00 20 13 Nordeste 30 Nordeste 0 -- -- 80
2018-11-29 20:00:00 20.7 8 Sudeste 19 Este 0 -- -- 73
2018-11-29 19:00:00 20.5 13 Sudeste 26 Este 0 -- -- 81
2018-11-29 18:00:00 21.5 11 Este 27 Este 0 -- -- 78
2018-11-29 17:00:00 22.6 10 Este 26 Este 0 -- -- 74
2018-11-29 16:00:00 23.7 8 Este 22 Nordeste 0 -- -- 71
2018-11-29 15:00:00 24.1 6 Sudoeste 11 Sur 0 -- -- 66
2018-11-29 14:00:00 23.6 6 Sur 12 Sur 0 -- -- 66
2018-11-29 13:00:00 23.2 6 Sudoeste 15 Sur 0 -- -- 68
2018-11-29 12:00:00 22.4 7 Sur 15 Sur 0 -- -- 65
2018-11-29 11:00:00 22.8 9 Sudeste 24 Nordeste 0 -- -- 66
2018-11-29 10:00:00 21.9 6 Sudeste 21 Nordeste 0 -- -- 67
2018-11-29 09:00:00 20.4 9 Norte 23 Nordeste 0 -- -- 78
2018-11-29 08:00:00 18.8 10 Nordeste 30 Este 0 -- -- 77
2018-11-29 07:00:00 18.6 6 Nordeste 8 Nordeste 0 -- -- 61
2018-11-29 06:00:00 18.7 4 Este 12 Sudeste 0 -- -- 56
2018-11-29 05:00:00 18.7 9 Este 18 Este 0 -- -- 63
2018-11-29 04:00:00 17.3 5 Este 10 Este 0 -- -- 68
2018-11-29 03:00:00 19.1 5 Sur 14 Sudeste 0 -- -- 73
2018-11-29 02:00:00 19.4 7 Sudeste 21 Sudeste 0 -- -- 60
2018-11-29 01:00:00 18.9 6 Este 19 Este 0 -- -- 72
2018-11-29 00:00:00 19.4 8 Este 16 Este 0 -- -- 76
2018-11-28 23:00:00 19.8 6 Sudeste 17 Este 0 -- -- 66
2018-11-28 22:00:00 19.4 11 Este 21 Este 0 -- -- 75
2018-11-28 21:00:00 19.3 7 Este 13 Este 0 -- -- 72
2018-11-28 20:00:00 19.5 14 Este 18 Este 0 -- -- 72
2018-11-28 13:00:00 22.4 8 Sur 12 Sur 0 -- -- 68
2018-11-28 12:00:00 21.1 4 Oeste 7 Oeste 0 -- -- 71
2018-11-28 11:00:00 21.3 4 Sur 9 Sur 0 -- -- 70
2018-11-28 10:00:00 21.4 6 Sur 11 Este 0 -- -- 70
2018-11-28 09:00:00 18.7 9 Este 19 Este 0 -- -- 77
2018-11-28 08:00:00 17.4 12 Este 15 Este 0 -- -- 81
2018-11-28 07:00:00 17.2 4 Este 14 Este 0 -- -- 81
2018-11-28 06:00:00 17.7 12 Este 19 Este 0 -- -- 74
2018-11-28 05:00:00 17.8 12 Este 17 Este 0 -- -- 75
2018-11-28 04:00:00 17.8 13 Este 19 Nordeste 0 -- -- 74
2018-11-28 03:00:00 17.2 13 Este 15 Este 0 -- -- 74
2018-11-28 02:00:00 17.9 12 Este 18 Este 0 -- -- 66
2018-11-28 01:00:00 18 6 Este 14 Este 0 -- -- 63
2018-11-28 00:00:00 18.9 4 Sudeste 23 Sur 0 -- -- 66
2018-11-27 23:00:00 18.8 6 Este 50 Nordeste 0 -- -- 66
2018-11-27 22:00:00 18.8 30 Nordeste 45 Nordeste 0 -- -- 70
2018-11-27 21:00:00 18.8 24 Nordeste 44 Nordeste 0 -- -- 70
2018-11-27 20:00:00 19 23 Nordeste 41 Nordeste 0 -- -- 70
2018-11-27 19:00:00 19.3 24 Nordeste 41 Nordeste 0 -- -- 69
2018-11-27 18:00:00 19.8 21 Nordeste 35 Nordeste 0 -- -- 69
2018-11-27 17:00:00 20.9 20 Nordeste 36 Nordeste 0 -- -- 68
2018-11-27 16:00:00 21.5 19 Nordeste 36 Nordeste 0 -- -- 67
2018-11-27 15:00:00 21.5 18 Nordeste 39 Este 0 -- -- 69
2018-11-27 14:00:00 22.1 21 Nordeste 34 Nordeste 0 -- -- 70
2018-11-27 13:00:00 22.1 22 Nordeste 35 Nordeste 0 -- -- 67
2018-11-27 12:00:00 22.7 10 Sur 15 Sur 0 -- -- 67
2018-11-27 11:00:00 21.6 8 Sudeste 35 Nordeste 0 -- -- 69
2018-11-27 10:00:00 21.4 18 Nordeste 29 Nordeste 0 -- -- 71
2018-11-27 09:00:00 20.9 18 Nordeste 28 Nordeste 0 -- -- 68
2018-11-27 08:00:00 19.6 9 Nordeste 24 Nordeste 0 -- -- 69
2018-11-27 07:00:00 20 15 Nordeste 31 Norte 0 -- -- 69
2018-11-27 06:00:00 19.7 18 Nordeste 30 Nordeste 0 -- -- 70
2018-11-27 05:00:00 19.3 16 Nordeste 25 Nordeste 0 -- -- 73
2018-11-27 04:00:00 19.4 14 Nordeste 23 Nordeste 0 -- -- 79
2018-11-27 03:00:00 19.4 15 Nordeste 24 Norte 0 -- -- 82
2018-11-27 02:00:00 19.5 15 Nordeste 23 Norte 0 -- -- 82
2018-11-27 01:00:00 19.9 12 Nordeste 21 Norte 0 -- -- 79
2018-11-27 00:00:00 19 6 Nordeste 16 Nordeste 0 -- -- 82
2018-11-26 23:00:00 19.3 9 Este 13 Este 0 -- -- 82
2018-11-26 22:00:00 20.2 6 Sudeste 17 Sur 0 -- -- 82
2018-11-26 21:00:00 20.6 12 Sur 18 Sudeste 0 -- -- 79
2018-11-26 20:00:00 20.4 4 Este 19 Norte 0 -- -- 74
2018-11-26 19:00:00 20.3 15 Nordeste 31 Nordeste 0 -- -- 78
2018-11-26 18:00:00 20.9 14 Nordeste 32 Norte 0 -- -- 78
2018-11-26 17:00:00 22.3 16 Norte 30 Nordeste 0 -- -- 68
2018-11-26 16:00:00 22.8 15 Nordeste 31 Norte 0 -- -- 68
2018-11-26 15:00:00 22.9 22 Norte 33 Norte 0 -- -- 66
2018-11-26 14:00:00 -- -- -- -- -- -- -- -- --
2018-11-26 13:00:00 -- -- -- -- -- -- -- -- --
2018-11-26 12:00:00 -- -- -- -- -- -- -- -- --
2018-11-26 11:00:00 -- -- -- -- -- -- -- -- --
2018-11-26 10:00:00 -- -- -- -- -- -- -- -- --
2018-11-26 09:00:00 -- -- -- -- -- -- -- -- --
2018-11-26 08:00:00 -- -- -- -- -- -- -- -- --
2018-11-26 07:00:00 -- -- -- -- -- -- -- -- --
2018-11-26 06:00:00 -- -- -- -- -- -- -- -- --
2018-11-26 05:00:00 -- -- -- -- -- -- -- -- --
2018-11-26 04:00:00 -- -- -- -- -- -- -- -- --
2018-11-26 03:00:00 20 16 Nordeste 28 Nordeste 0 -- -- 80
2018-11-26 02:00:00 20.5 14 Nordeste 24 Nordeste 0 -- -- 75
2018-11-26 01:00:00 20.4 16 Nordeste 24 Nordeste 0 -- -- 74
2018-11-26 00:00:00 20.5 15 Nordeste 20 Nordeste 0 -- -- 74
2018-11-25 23:00:00 20.2 6 Este 19 Sudeste 0 -- -- 74
2018-11-25 22:00:00 20.6 11 Sudeste 19 Nordeste 0 -- -- 77
2018-11-25 21:00:00 20.4 8 Este 21 Este 0 -- -- 73
2018-11-25 20:00:00 21 12 Nordeste 22 Nordeste 0 -- -- 76
2018-11-25 19:00:00 21.4 10 Nordeste 20 Este 0 -- -- 74
2018-11-25 18:00:00 22.5 9 Nordeste 19 Nordeste 0 -- -- 69
2018-11-25 17:00:00 23.6 10 Nordeste 21 Norte 0 -- -- 65
2018-11-25 16:00:00 23 16 Norte 25 Norte 0 -- -- 70
2018-11-25 15:00:00 22.8 15 Norte 21 Norte 0 -- -- 72
2018-11-25 14:00:00 22.7 15 Norte 22 Norte 0 -- -- 73
2018-11-25 13:00:00 23.1 10 Norte 23 Norte 0 -- -- 69
2018-11-25 12:00:00 22.3 17 Norte 20 Norte 0 -- -- 73
2018-11-25 11:00:00 21.7 13 Norte 20 Norte 0 -- -- 76
2018-11-25 10:00:00 21.4 6 Norte 8 Norte 0 -- -- 78
2018-11-25 09:00:00 20.4 4 Este 14 Este 0 -- -- 79
2018-11-25 08:00:00 18.4 7 Este 11 Este 0 -- -- 84
2018-11-25 07:00:00 18.6 5 Este 8 Este 0 -- -- 84
2018-11-25 06:00:00 18.7 3 Sudeste 8 Nordeste 0 -- -- 83
2018-11-25 05:00:00 19.2 3 Este 8 Sudeste 0 -- -- 79
2018-11-25 04:00:00 19 2 Sudeste 12 Nordeste 0 -- -- 80
2018-11-25 03:00:00 18.7 6 Este 9 Este 0 -- -- 80
2018-11-25 02:00:00 18.9 4 Este 11 Este 0 -- -- 76
2018-11-25 01:00:00 19.4 4 Sudeste 14 Sudoeste 0 -- -- 74
2018-11-25 00:00:00 19.8 7 Sur 10 Sur 0 -- -- 74
2018-11-24 23:00:00 19.8 6 Sur 10 Sur 0 -- -- 71
2018-11-24 22:00:00 19.7 9 Sudeste 16 Sur 0 -- -- 68
2018-11-24 21:00:00 19.4 9 Sur 12 Sur 0 -- -- 72
2018-11-24 20:00:00 19.1 4 Sudeste 23 Sudoeste 0 -- -- 72
2018-11-24 19:00:00 19.6 15 Sudoeste 25 Sudoeste 0 -- -- 72
2018-11-24 18:00:00 20 19 Sudoeste 33 Sudoeste 0 -- -- 68
2018-11-24 17:00:00 20.6 21 Sudoeste 27 Sudoeste 0 -- -- 68
2018-11-24 16:00:00 21.1 17 Sudoeste 25 Sudoeste 0 -- -- 63
2018-11-24 15:00:00 21 13 Sudoeste 18 Sudoeste 0 -- -- 61
2018-11-24 14:00:00 21 11 Sudoeste 14 Sudoeste 0 -- -- 59
2018-11-24 13:00:00 21.1 6 Sudoeste 11 Sudoeste 0 -- -- 56
2018-11-24 12:00:00 20.7 4 Oeste 7 Sudoeste 0 -- -- 58
2018-11-24 11:00:00 21.5 5 Sudoeste 12 Sur 0 -- -- 53
2018-11-24 10:00:00 20.1 7 Este 21 Este 0 -- -- 56
2018-11-24 09:00:00 17.7 16 Este 25 Este 0 -- -- 59
2018-11-24 08:00:00 16 18 Este 24 Este 0 -- -- 64
2018-11-24 07:00:00 16.5 14 Este 25 Sudeste 0 -- -- 65
2018-11-24 06:00:00 16.2 17 Este 30 Este 0 -- -- 70
2018-11-24 05:00:00 15.9 17 Este 28 Sudeste 0 -- -- 70
2018-11-24 04:00:00 16 17 Este 26 Este 0 -- -- 69
2018-11-24 03:00:00 16.9 15 Este 24 Este 0 -- -- 66
2018-11-24 02:00:00 16.3 17 Este 25 Este 0 -- -- 68
2018-11-24 01:00:00 16.4 14 Este 23 Este 0 -- -- 69
2018-11-24 00:00:00 17.2 13 Este 22 Este 0 -- -- 67
2018-11-23 23:00:00 16.5 14 Este 21 Este 0 -- -- 72
2018-11-23 22:00:00 17.2 12 Este 19 Este 0 -- -- 70
2018-11-23 21:00:00 17.4 8 Este 21 Este 0 -- -- 70
2018-11-23 20:00:00 17.7 10 Este 21 Este 0 -- -- 72
2018-11-23 19:00:00 18.1 9 Este 22 Nordeste 0 -- -- 69
2018-11-23 18:00:00 19.1 10 Nordeste 20 Norte 0 -- -- 64
2018-11-23 17:00:00 19.4 13 Nordeste 27 Nordeste 0 -- -- 61
2018-11-23 16:00:00 19.6 15 Norte 32 Norte 0 -- -- 66
2018-11-23 15:00:00 19 18 Norte 32 Nordeste 0 -- -- 65
2018-11-23 14:00:00 19.1 19 Norte 35 Norte 0 -- -- 68
2018-11-23 13:00:00 18.3 14 Norte 27 Norte 0 -- -- 73
2018-11-23 12:00:00 18.9 10 Este 20 Nordeste 0 -- -- 68
2018-11-23 11:00:00 18.1 10 Nordeste 36 Norte 0 -- -- 72
2018-11-23 10:00:00 16.4 9 Este 44 Norte 0 -- -- 73
2018-11-23 09:00:00 17.8 32 Noroeste 42 Noroeste 0 -- -- 78
2018-11-23 08:00:00 15.5 6 Sudeste 26 Norte 0 -- -- 82
2018-11-23 07:00:00 16.8 10 Norte 26 Norte 0 -- -- 80
2018-11-23 06:00:00 16.1 10 Sudeste 19 Norte 0 -- -- 75
2018-11-23 05:00:00 16.2 23 Norte 49 Norte 0 -- -- 72
2018-11-23 04:00:00 16 9 Este 22 Noroeste 0 -- -- 77
2018-11-23 03:00:00 16.8 8 Norte 22 Sudeste 0 -- -- 74
2018-11-23 02:00:00 16.6 10 Este 35 Norte 0 -- -- 77
2018-11-23 01:00:00 17.1 6 Nordeste 17 Norte 0 -- -- 78
2018-11-23 00:00:00 16.6 11 Este 19 Sudeste 0 -- -- 80
2018-11-22 23:00:00 16.6 6 Este 19 Sudeste 0 -- -- 82
2018-11-22 22:00:00 17 7 Este 21 Este 0 -- -- 74
2018-11-22 21:00:00 16.7 8 Sudeste 34 Noroeste 0 -- -- 81
2018-11-22 20:00:00 17.9 6 Este 32 Noroeste 0 -- -- 78
2018-11-22 19:00:00 17.9 10 Sur 46 Norte 0 -- -- 76
2018-11-22 18:00:00 18.8 12 Nordeste 33 Norte 0 -- -- 79
2018-11-22 17:00:00 19.2 5 Sudeste 28 Norte 0 -- -- 75
2018-11-22 16:00:00 19.2 25 Norte 35 Norte 0 -- -- 77
2018-11-22 15:00:00 19.6 7 Norte 19 Norte 0 -- -- 81
2018-11-22 14:00:00 18.7 15 Norte 22 Norte 0 -- -- 86
2018-11-22 13:00:00 18.6 5 Norte 11 Este 0 -- -- 88
2018-11-22 12:00:00 17.5 6 Este 11 Este 0 -- -- 90
2018-11-22 11:00:00 18 4 Noroeste 8 Norte 0 -- -- 88
2018-11-22 10:00:00 18.6 2 Nordeste 25 Norte 0 -- -- 83
2018-11-22 09:00:00 18.4 4 Sudeste 20 Este 0 -- -- 83
2018-11-22 08:00:00 17.6 0 Calma 15 Sudeste 0 -- -- 87
2018-11-22 07:00:00 17.1 13 Sudeste 23 Sudeste 0 -- -- 91
2018-11-22 06:00:00 16.8 5 Este 12 Este 0 -- -- 93
2018-11-22 05:00:00 17.3 5 Norte 10 Nordeste 0 -- -- 92
2018-11-22 04:00:00 17.9 9 Noroeste 11 Norte 0 -- -- 87
2018-11-22 03:00:00 18.1 6 Sudeste 14 Sudeste 0 -- -- 87
2018-11-22 02:00:00 17.8 5 Nordeste 13 Este 0 -- -- 90
2018-11-22 01:00:00 17.6 4 Este 12 Nordeste 0 -- -- 92
2018-11-22 00:00:00 17.4 7 Nordeste 16 Norte 0 -- -- 93
2018-11-21 23:00:00 17.4 12 Norte 21 Norte 0 -- -- 94
2018-11-21 22:00:00 18 12 Norte 44 Noroeste 0 -- -- 92
2018-11-21 21:00:00 21.2 6 Noroeste 24 Sudoeste 0 -- -- 57
2018-11-21 20:00:00 21.4 15 Oeste 30 Sudoeste 0 -- -- 64
2018-11-21 19:00:00 21.3 21 Sudoeste 33 Sudoeste 0 -- -- 61
2018-11-21 18:00:00 21.7 22 Sudoeste 58 Oeste 0 -- -- 59
2018-11-21 17:00:00 21.1 37 Oeste 46 Sudoeste 0 -- -- 72
2018-11-21 16:00:00 21.3 38 Sudoeste 58 Sudoeste 0 -- -- 72
2018-11-21 15:00:00 21.5 39 Sudoeste 57 Oeste 0 -- -- 72
2018-11-21 14:00:00 21.4 39 Sudoeste 47 Sudoeste 0 -- -- 72
2018-11-21 13:00:00 21.8 33 Sudoeste 42 Sudoeste 0 -- -- 71
2018-11-21 12:00:00 23.1 19 Sudoeste 36 Oeste 0 -- -- 57
2018-11-21 11:00:00 22.4 20 Sudoeste 33 Oeste 0 -- -- 59
2018-11-21 10:00:00 23.4 6 Sur 15 Noroeste 0 -- -- 50
2018-11-21 09:00:00 23 6 Sur 18 Oeste 0 -- -- 51
2018-11-21 08:00:00 19.6 10 Este 15 Sudoeste 0 -- -- 53
2018-11-21 07:00:00 19.3 4 Sudeste 13 Sudoeste 0 -- -- 61
2018-11-21 06:00:00 20.3 12 Sudoeste 21 Sudoeste 0 -- -- 67
2018-11-21 05:00:00 20.3 15 Sudoeste 22 Sudoeste 0 -- -- 63
2018-11-21 04:00:00 19.8 7 Sudeste 13 Este 0 -- -- 61
2018-11-21 03:00:00 18.4 4 Este 18 Este 0 -- -- 62
2018-11-21 02:00:00 18.8 10 Este 15 Este 0 -- -- 60
2018-11-21 01:00:00 19 6 Este 18 Este 0 -- -- 62
2018-11-21 00:00:00 18.3 8 Este 12 Este 0 -- -- 69
2018-11-20 23:00:00 19 8 Este 16 Este 0 -- -- 66
2018-11-20 22:00:00 18.9 9 Este 17 Este 0 -- -- 65
2018-11-20 21:00:00 18.9 9 Este 14 Nordeste 0 -- -- 72
2018-11-20 20:00:00 19.9 3 Oeste 21 Sudoeste 0 -- -- 75
2018-11-20 19:00:00 20.8 17 Sudoeste 27 Sudoeste 0 -- -- 75
2018-11-20 18:00:00 21.3 17 Sudoeste 21 Sudoeste 0 -- -- 70
2018-11-20 17:00:00 22 16 Sudoeste 21 Sudoeste 0 -- -- 67
2018-11-20 16:00:00 22.4 14 Sudoeste 17 Sudoeste 0 -- -- 67
2018-11-20 15:00:00 22 12 Sudoeste 20 Sudoeste 0 -- -- 68
2018-11-20 14:00:00 22.2 10 Sudoeste 15 Sudoeste 0 -- -- 66
2018-11-20 13:00:00 22.1 10 Sudoeste 14 Sudoeste 0 -- -- 66
2018-11-20 12:00:00 22 8 Sudoeste 10 Sudoeste 0 -- -- 64
2018-11-20 11:00:00 22.3 6 Sudoeste 10 Sudoeste 0 -- -- 60
2018-11-20 10:00:00 22.6 9 Sur 12 Este 0 -- -- 57
2018-11-20 09:00:00 19.6 12 Este 20 Este 0 -- -- 64
2018-11-20 08:00:00 17.5 13 Este 20 Este 0 -- -- 70
2018-11-20 07:00:00 17.7 10 Este 21 Este 0 -- -- 69
2018-11-20 06:00:00 17.7 16 Este 26 Este 0 -- -- 68
2018-11-20 05:00:00 17.6 14 Este 20 Este 0 -- -- 71
2018-11-20 04:00:00 18 7 Este 10 Este 0 -- -- 76
2018-11-20 03:00:00 18.1 5 Este 13 Este 0 -- -- 77
2018-11-20 02:00:00 18.3 6 Este 18 Noroeste 0 -- -- 77
2018-11-20 01:00:00 19.3 8 Norte 22 Noroeste 0 -- -- 77
2018-11-20 00:00:00 19.4 10 Norte 18 Norte 0 -- -- 77
2018-11-19 23:00:00 18.3 10 Este 15 Este 0 -- -- 80
2018-11-19 22:00:00 18.7 9 Sudeste 20 Sudeste 0 -- -- 77
2018-11-19 21:00:00 19 12 Este 20 Este 0 -- -- 74
2018-11-19 20:00:00 18.6 6 Este 35 Norte 0 -- -- 75
2018-11-19 19:00:00 19.5 8 Este 21 Norte 0 -- -- 75
2018-11-19 18:00:00 20.3 8 Norte 29 Norte 0 -- -- 72
2018-11-19 17:00:00 20.3 19 Norte 27 Norte 0 -- -- 72
2018-11-19 16:00:00 20 17 Norte 28 Norte 0 -- -- 74
2018-11-19 15:00:00 20.8 7 Norte 14 Norte 0 -- -- 69
2018-11-19 14:00:00 20 4 Norte 33 Norte 0 -- -- 67
2018-11-19 13:00:00 20.7 6 Este 24 Noroeste 0 -- -- 67
2018-11-19 12:00:00 20.3 7 Norte 16 Norte 0 -- -- 70
2018-11-19 11:00:00 20.2 10 Norte 22 Sudeste 0 -- -- 69
2018-11-19 10:00:00 18.3 13 Sudeste 36 Norte 0 -- -- 69
2018-11-19 09:00:00 18.4 27 Norte 36 Norte 0 -- -- 83
2018-11-19 08:00:00 18.8 19 Norte 30 Norte 0 -- -- 78
2018-11-19 07:00:00 18.8 6 Sudeste 24 Este 0 -- -- 71
2018-11-19 06:00:00 17.9 10 Este 19 Este 0 -- -- 75
2018-11-19 05:00:00 17.8 10 Este 17 Este 0 -- -- 71
2018-11-19 04:00:00 18.1 6 Este 16 Este 0 -- -- 73
2018-11-19 03:00:00 19.1 9 Sudeste 17 Este 0 -- -- 67
2018-11-19 02:00:00 19.1 8 Sudeste 34 Norte 0 -- -- 67
2018-11-19 01:00:00 18.9 6 Este 14 Este 0 -- -- 72
2018-11-19 00:00:00 19.7 15 Noroeste 26 Noroeste 0 -- -- 68
2018-11-18 23:00:00 19 8 Este 31 Norte 0 -- -- 69
2018-11-18 22:00:00 20.2 12 Norte 26 Norte 0 -- -- 68
2018-11-18 21:00:00 20.1 21 Norte 27 Norte 0 -- -- 69
2018-11-18 20:00:00 19.8 6 Este 14 Sur 0 -- -- 68
2018-11-18 19:00:00 19.9 6 Este 18 Norte 0 -- -- 69
2018-11-18 18:00:00 20.1 20 Norte 29 Norte 0 -- -- 73
2018-11-18 17:00:00 20.1 21 Norte 28 Norte 0 -- -- 74
2018-11-18 16:00:00 20.5 23 Noroeste 35 Norte 0 -- -- 69
2018-11-18 15:00:00 21.3 22 Norte 33 Norte 0 -- -- 70
2018-11-18 14:00:00 21.2 17 Norte 27 Noroeste 0 -- -- 60
2018-11-18 13:00:00 21.1 16 Noroeste 27 Noroeste 0 -- -- 66
2018-11-18 12:00:00 21.5 4 Este 10 Este 0 -- -- 58
2018-11-18 11:00:00 21 4 Noroeste 17 Noroeste 0 -- -- 63
2018-11-18 10:00:00 20.2 5 Nordeste 17 Este 0 -- -- 67
2018-11-18 09:00:00 19.1 10 Este 18 Este 0 -- -- 74
2018-11-18 08:00:00 18.6 5 Este 17 Este 0 -- -- 74
2018-11-18 07:00:00 18.4 12 Sudeste 22 Sudeste 0 -- -- 75
2018-11-18 06:00:00 18.2 7 Nordeste 16 Sudeste 0 -- -- 77
2018-11-18 05:00:00 18.4 14 Este 22 Este 0 -- -- 75
2018-11-18 04:00:00 18.5 11 Sudeste 18 Este 0 -- -- 74
2018-11-18 03:00:00 18.9 11 Este 18 Este 0 -- -- 71
2018-11-18 02:00:00 19.1 8 Este 15 Este 0 -- -- 72
2018-11-18 01:00:00 20.1 7 Nordeste 19 Norte 0 -- -- 68
2018-11-18 00:00:00 20.5 13 Norte 23 Norte 0 -- -- 69
2018-11-17 23:00:00 20 4 Este 8 Sudeste 0 -- -- 75
2018-11-17 22:00:00 20.2 4 Este 21 Norte 0 -- -- 74
2018-11-17 21:00:00 20.5 6 Nordeste 29 Norte 0 -- -- 71
2018-11-17 20:00:00 20.9 9 Norte 30 Norte 0 -- -- 73
2018-11-17 19:00:00 20.9 13 Norte 40 Noroeste 0 -- -- 74
2018-11-17 18:00:00 21.2 8 Sudeste 25 Sudeste 0 -- -- 72
2018-11-17 17:00:00 20.9 10 Nordeste 27 Este 0 -- -- 77
2018-11-17 16:00:00 20 10 Este 23 Sudeste 0 -- -- 79
2018-11-17 15:00:00 18.9 6 Sudeste 50 Oeste 0 -- -- 92
2018-11-17 14:00:00 22.1 36 Sudoeste 57 Sudoeste 0 -- -- 77
2018-11-17 13:00:00 22.6 35 Sudoeste 52 Sur 0 -- -- 73
2018-11-17 12:00:00 22.1 44 Sudoeste 62 Sudoeste 0 -- -- 74
2018-11-17 11:00:00 22 42 Sudoeste 59 Sudoeste 0 -- -- 73
2018-11-17 10:00:00 22.8 33 Sur 53 Sur 0 -- -- 64
2018-11-17 09:00:00 22.3 37 Sur 60 Sur 0 -- -- 65
2018-11-17 08:00:00 21.6 33 Sur 48 Sur 0 -- -- 63
2018-11-17 07:00:00 21.2 29 Sudoeste 48 Sur 0 -- -- 64
2018-11-17 06:00:00 21 32 Sur 42 Sur 0 -- -- 60
2018-11-17 05:00:00 20.7 30 Sudoeste 45 Sur 0 -- -- 64
2018-11-17 04:00:00 20.7 28 Sudoeste 41 Sur 0 -- -- 65
2018-11-17 03:00:00 20.9 23 Sur 39 Sudoeste 0 -- -- 59
2018-11-17 02:00:00 20.4 21 Sudoeste 32 Sudoeste 0 -- -- 64
2018-11-17 01:00:00 20.3 22 Sudoeste 34 Sudoeste 0 -- -- 65
2018-11-17 00:00:00 20.4 22 Sudoeste 33 Sudoeste 0 -- -- 61
2018-11-16 23:00:00 19.2 12 Este 19 Este 0 -- -- 65
2018-11-16 22:00:00 19.3 12 Este 15 Este 0 -- -- 64
2018-11-16 21:00:00 19.4 6 Este 12 Sudoeste 0 -- -- 66
2018-11-16 20:00:00 20.6 6 Sudoeste 8 Sudoeste 0 -- -- 65
2018-11-16 19:00:00 20.5 4 Sudoeste 9 Sur 0 -- -- 64
2018-11-16 18:00:00 20.9 5 Oeste 7 Oeste 0 -- -- 64
2018-11-16 17:00:00 22.3 4 Oeste 7 Noroeste 0 -- -- 57
2018-11-16 16:00:00 22.2 5 Norte 8 Norte 0 -- -- 60
2018-11-16 15:00:00 22.1 5 Noroeste 9 Noroeste 0 -- -- 64
2018-11-16 14:00:00 21.6 5 Norte 15 Norte 0 -- -- 62
2018-11-16 13:00:00 21.6 11 Norte 18 Norte 0 -- -- 65
2018-11-16 12:00:00 20.7 16 Norte 20 Norte 0 -- -- 66
2018-11-16 11:00:00 21.3 9 Norte 20 Norte 0 -- -- 62
2018-11-16 10:00:00 21 9 Sudeste 15 Este 0 -- -- 60
2018-11-16 09:00:00 20.1 9 Este 26 Este 0 -- -- 59
2018-11-16 08:00:00 18.2 13 Este 18 Este 0 -- -- 65
2018-11-16 07:00:00 18.6 9 Este 19 Este 0 -- -- 66
2018-11-16 06:00:00 19 11 Este 18 Este 0 -- -- 65
2018-11-16 05:00:00 18.9 8 Este 17 Este 0 -- -- 66
2018-11-16 04:00:00 19.1 8 Este 15 Sudeste 0 -- -- 66
2018-11-16 03:00:00 19.1 9 Este 14 Este 0 -- -- 67
2018-11-16 02:00:00 19.8 10 Sudeste 16 Sudeste 0 -- -- 63
2018-11-16 01:00:00 19.8 8 Norte 14 Norte 0 -- -- 64
2018-11-16 00:00:00 20.1 9 Norte 15 Norte 0 -- -- 64
2018-11-15 23:00:00 20.1 9 Norte 14 Norte 0 -- -- 67
2018-11-15 22:00:00 20.2 8 Norte 20 Norte 0 -- -- 68
2018-11-15 21:00:00 20.3 14 Norte 19 Norte 0 -- -- 66
2018-11-15 20:00:00 20.3 2 Este 17 Norte 0 -- -- 63
2018-11-15 19:00:00 20.4 17 Norte 21 Norte 0 -- -- 66
2018-11-15 18:00:00 20.6 17 Norte 22 Norte 0 -- -- 68
2018-11-15 17:00:00 20.8 10 Norte 23 Norte 0 -- -- 67
2018-11-15 16:00:00 21.2 9 Nordeste 15 Norte 0 -- -- 64
2018-11-15 15:00:00 21.1 11 Norte 19 Norte 0 -- -- 66
2018-11-15 14:00:00 21.5 6 Sudeste 25 Sudeste 0 -- -- 61
2018-11-15 13:00:00 19.9 9 Sur 29 Noroeste 0 -- -- 76
2018-11-15 12:00:00 20.6 17 Oeste 32 Sudoeste 0 -- -- 74
2018-11-15 11:00:00 20.6 26 Sudoeste 32 Sudoeste 0 -- -- 72
2018-11-15 10:00:00 21.4 14 Sudoeste 23 Sudoeste 0 -- -- 61
2018-11-15 09:00:00 20.4 12 Oeste 25 Sudoeste 0 -- -- 65
2018-11-15 08:00:00 19.2 12 Sur 18 Sudoeste 0 -- -- 67
2018-11-15 07:00:00 18 4 Este 15 Este 0 -- -- 68
2018-11-15 06:00:00 18.4 5 Norte 14 Este 0 -- -- 66
2018-11-15 05:00:00 17 8 Este 12 Nordeste 0 -- -- 69
2018-11-15 04:00:00 17.7 8 Este 13 Este 0 -- -- 62
2018-11-15 03:00:00 17.7 7 Este 13 Este 0 -- -- 62
2018-11-15 02:00:00 17.6 6 Este 15 Este 0 -- -- 63
2018-11-15 01:00:00 17.7 11 Este 17 Este 0 -- -- 64
2018-11-15 00:00:00 17.9 10 Este 17 Este 0 -- -- 67
2018-11-14 23:00:00 17.9 9 Este 18 Sudeste 0 -- -- 68
2018-11-14 22:00:00 18.3 10 Este 19 Este 0 -- -- 72
2018-11-14 21:00:00 18.2 5 Este 24 Norte 0 -- -- 79
2018-11-14 20:00:00 19 12 Norte 34 Norte 0 -- -- 77
2018-11-14 19:00:00 19.8 14 Norte 26 Norte 0 -- -- 75
2018-11-14 18:00:00 20.4 11 Nordeste 23 Norte 0 -- -- 59
2018-11-14 17:00:00 21.7 8 Nordeste 25 Nordeste 0 -- -- 54
2018-11-14 16:00:00 21.9 10 Norte 20 Norte 0 -- -- 52
2018-11-14 15:00:00 21.6 14 Norte 26 Norte 0 -- -- 53
2018-11-14 14:00:00 22 8 Nordeste 23 Norte 0 -- -- 55
2018-11-14 13:00:00 21.2 16 Norte 31 Norte 0 -- -- 59
2018-11-14 12:00:00 20.8 13 Norte 24 Este 0 -- -- 60
2018-11-14 11:00:00 20.4 12 Nordeste 23 Este 0 -- -- 61
2018-11-14 10:00:00 19.9 13 Nordeste 21 Nordeste 0 -- -- 64
2018-11-14 09:00:00 19 9 Nordeste 15 Nordeste 0 -- -- 71
2018-11-14 08:00:00 18.1 6 Nordeste 14 Nordeste 0 -- -- 74
2018-11-14 07:00:00 18.2 12 Nordeste 18 Nordeste 0 -- -- 73
2018-11-14 06:00:00 18.1 6 Este 19 Este 0 -- -- 66
2018-11-14 05:00:00 18 6 Nordeste 21 Nordeste 0 -- -- 68
2018-11-14 04:00:00 18.3 9 Nordeste 22 Este 0 -- -- 72
2018-11-14 03:00:00 18.6 13 Norte 23 Nordeste 0 -- -- 74
2018-11-14 02:00:00 18.9 12 Este 37 Nordeste 0 -- -- 68
2018-11-14 01:00:00 19.4 19 Nordeste 33 Nordeste 0 -- -- 69
2018-11-14 00:00:00 19.2 20 Nordeste 37 Nordeste 0 -- -- 66
2018-11-13 23:00:00 19.5 17 Nordeste 32 Nordeste 0 -- -- 68
2018-11-13 22:00:00 19.5 15 Nordeste 29 Nordeste 0 -- -- 64
2018-11-13 21:00:00 19.6 18 Nordeste 37 Nordeste 0 -- -- 60
2018-11-13 20:00:00 19.6 15 Nordeste 32 Nordeste 0 -- -- 63
2018-11-13 19:00:00 19.8 17 Nordeste 30 Nordeste 0 -- -- 61
2018-11-13 18:00:00 20.3 16 Nordeste 41 Norte 0 -- -- 56
2018-11-13 17:00:00 20.4 22 Nordeste 36 Nordeste 0 -- -- 61
2018-11-13 16:00:00 21.4 20 Nordeste 41 Norte 0 -- -- 56
2018-11-13 15:00:00 21.3 21 Nordeste 37 Norte 0 -- -- 58
2018-11-13 14:00:00 21.3 19 Nordeste 39 Nordeste 0 -- -- 57
2018-11-13 13:00:00 20.5 20 Nordeste 37 Nordeste 0 -- -- 63
2018-11-13 12:00:00 20.9 21 Nordeste 37 Nordeste 0 -- -- 56
2018-11-13 11:00:00 20.4 21 Nordeste 39 Nordeste 0 -- -- 58
2018-11-13 10:00:00 20.2 17 Nordeste 30 Nordeste 0 -- -- 57
2018-11-13 09:00:00 19.8 17 Nordeste 32 Nordeste 0 -- -- 58
2018-11-13 08:00:00 19.1 15 Nordeste 27 Este 0 -- -- 62
2018-11-13 07:00:00 18.8 17 Nordeste 32 Nordeste 0 -- -- 65
2018-11-13 06:00:00 18.8 14 Nordeste 33 Nordeste 0 -- -- 63
2018-11-13 05:00:00 18.8 19 Nordeste 34 Nordeste 0 -- -- 68
2018-11-13 04:00:00 18.8 18 Nordeste 34 Nordeste 0 -- -- 67
2018-11-13 03:00:00 19.1 16 Nordeste 29 Este 0 -- -- 60
2018-11-13 02:00:00 18.5 14 Nordeste 31 Este 0 -- -- 70
2018-11-13 01:00:00 17.8 21 Nordeste 45 Nordeste 0 -- -- 76
2018-11-13 00:00:00 19.3 16 Nordeste 37 Nordeste 0 -- -- 65
2018-11-12 23:00:00 19.7 19 Nordeste 36 Nordeste 0 -- -- 64
2018-11-12 22:00:00 19.3 17 Este 37 Nordeste 0 -- -- 66
2018-11-12 21:00:00 19.8 21 Nordeste 35 Nordeste 0 -- -- 66
2018-11-12 20:00:00 19.9 17 Nordeste 31 Nordeste 0 -- -- 62
2018-11-12 19:00:00 20 18 Nordeste 33 Nordeste 0 -- -- 60
2018-11-12 18:00:00 20.3 18 Nordeste 32 Norte 0 -- -- 64
2018-11-12 17:00:00 20.8 14 Nordeste 30 Este 0 -- -- 61
2018-11-12 16:00:00 21.3 14 Nordeste 26 Norte 0 -- -- 70
2018-11-12 15:00:00 21 13 Nordeste 32 Norte 0 -- -- 70
2018-11-12 14:00:00 19.8 11 Este 25 Nordeste 0 -- -- 76
2018-11-12 13:00:00 20 10 Este 16 Este 0 -- -- 78
2018-11-12 12:00:00 19.3 10 Este 21 Este 0 -- -- 83
2018-11-12 11:00:00 19 6 Nordeste 19 Sudeste 0 -- -- 87
2018-11-12 10:00:00 19.6 8 Nordeste 24 Este 0 -- -- 78
2018-11-12 09:00:00 17.7 17 Sudeste 31 Norte 0 -- -- 90
2018-11-12 08:00:00 18.7 7 Este 29 Norte 0 -- -- 89
2018-11-12 07:00:00 20.4 6 Este 10 Nordeste 0 -- -- 73
2018-11-12 06:00:00 19.2 7 Este 9 Este 0 -- -- 73
2018-11-12 05:00:00 19.7 4 Este 13 Nordeste 0 -- -- 69
2018-11-12 04:00:00 19.8 4 Nordeste 14 Este 0 -- -- 68
2018-11-12 03:00:00 20.6 11 Este 15 Este 0 -- -- 64
2018-11-12 02:00:00 21 7 Sudeste 14 Sudeste 0 -- -- 65
2018-11-12 01:00:00 20.7 7 Este 12 Este 0 -- -- 71
2018-11-12 00:00:00 20.6 7 Nordeste 13 Este 0 -- -- 71
2018-11-11 23:00:00 20.8 6 Nordeste 13 Este 0 -- -- 71
2018-11-11 22:00:00 20.7 7 Nordeste 17 Nordeste 0 -- -- 69
2018-11-11 21:00:00 21.2 12 Norte 18 Norte 0 -- -- 70
2018-11-11 20:00:00 21.4 10 Nordeste 18 Nordeste 0 -- -- 69
2018-11-11 19:00:00 21.6 10 Este 21 Este 0 -- -- 63
2018-11-11 18:00:00 21.8 10 Nordeste 23 Norte 0 -- -- 64
2018-11-11 17:00:00 22.7 12 Nordeste 25 Norte 0 -- -- 57
2018-11-11 16:00:00 23 12 Nordeste 24 Norte 0 -- -- 56
2018-11-11 15:00:00 22.8 12 Norte 27 Norte 0 -- -- 54
2018-11-11 14:00:00 23.5 13 Norte 32 Norte 0 -- -- 55
2018-11-11 13:00:00 23 18 Norte 29 Norte 0 -- -- 51
2018-11-11 12:00:00 22.6 17 Nordeste 28 Nordeste 0 -- -- 52
2018-11-11 11:00:00 21.2 15 Este 27 Nordeste 0 -- -- 62
2018-11-11 10:00:00 20.9 11 Nordeste 24 Nordeste 0 -- -- 65
2018-11-11 09:00:00 20.8 9 Este 24 Este 0 -- -- 58
2018-11-11 08:00:00 20.2 12 Este 27 Este 0 -- -- 60
2018-11-11 07:00:00 19.7 11 Este 19 Este 0 -- -- 62
2018-11-11 06:00:00 19.3 11 Nordeste 22 Nordeste 0 -- -- 66
2018-11-11 05:00:00 19.8 12 Nordeste 21 Nordeste 0 -- -- 64
2018-11-11 04:00:00 19.3 8 Nordeste 24 Nordeste 0 -- -- 65
2018-11-11 03:00:00 19.9 14 Nordeste 23 Nordeste 0 -- -- 67
2018-11-11 02:00:00 20 11 Nordeste 26 Este 0 -- -- 65
2018-11-11 01:00:00 20.1 14 Nordeste 28 Sudeste 0 -- -- 65
2018-11-11 00:00:00 20.2 12 Este 26 Este 0 -- -- 64
2018-11-10 23:00:00 20.4 11 Este 24 Nordeste 0 -- -- 65
2018-11-10 22:00:00 20.4 12 Nordeste 28 Nordeste 0 -- -- 65
2018-11-10 21:00:00 20.4 9 Nordeste 23 Nordeste 0 -- -- 62
2018-11-10 20:00:00 20.4 14 Nordeste 27 Nordeste 0 -- -- 63
2018-11-10 19:00:00 20.6 12 Nordeste 27 Nordeste 0 -- -- 65
2018-11-10 18:00:00 21 14 Nordeste 29 Nordeste 0 -- -- 60
2018-11-10 17:00:00 21.8 17 Nordeste 34 Nordeste 0 -- -- 59
2018-11-10 16:00:00 22.2 18 Nordeste 31 Este 0 -- -- 53
2018-11-10 15:00:00 22.5 17 Nordeste 35 Nordeste 0 -- -- 54
2018-11-10 14:00:00 22.3 18 Nordeste 38 Nordeste 0 -- -- 59
2018-11-10 13:00:00 22 15 Nordeste 35 Nordeste 0 -- -- 55
2018-11-10 12:00:00 21.6 19 Nordeste 34 Nordeste 0 -- -- 57
2018-11-10 11:00:00 21.2 19 Nordeste 34 Nordeste 0 -- -- 58
2018-11-10 10:00:00 20.4 15 Nordeste 29 Nordeste 0 -- -- 60
2018-11-10 09:00:00 20.2 14 Nordeste 25 Este 0 -- -- 64
2018-11-10 08:00:00 19.5 11 Nordeste 23 Nordeste 0 -- -- 68
2018-11-10 07:00:00 19.7 11 Este 25 Este 0 -- -- 66
2018-11-10 06:00:00 19.5 11 Este 22 Este 0 -- -- 66
2018-11-10 05:00:00 19.7 15 Nordeste 28 Nordeste 0 -- -- 68
2018-11-10 04:00:00 19.7 16 Nordeste 28 Nordeste 0 -- -- 71
2018-11-10 03:00:00 19.9 9 Nordeste 20 Nordeste 0 -- -- 70
2018-11-10 02:00:00 19.8 9 Nordeste 23 Este 0 -- -- 68
2018-11-10 01:00:00 19.7 10 Nordeste 25 Nordeste 0 -- -- 69
2018-11-10 00:00:00 20 9 Nordeste 28 Nordeste 0 -- -- 65
2018-11-09 23:00:00 20.2 14 Nordeste 26 Nordeste 0 -- -- 68
2018-11-09 22:00:00 20.2 13 Nordeste 29 Nordeste 0 -- -- 67
2018-11-09 21:00:00 20.4 14 Nordeste 27 Este 0 -- -- 69
2018-11-09 20:00:00 20.7 18 Nordeste 31 Este 0 -- -- 68
2018-11-09 19:00:00 21 16 Nordeste 35 Nordeste 0 -- -- 69
2018-11-09 18:00:00 21.6 19 Nordeste 35 Este 0 -- -- 69
2018-11-09 17:00:00 22.3 21 Nordeste 39 Nordeste 0 -- -- 63
2018-11-09 16:00:00 22.9 21 Nordeste 45 Nordeste 0 -- -- 64
2018-11-09 15:00:00 22.6 28 Nordeste 40 Nordeste 0 -- -- 68
2018-11-09 14:00:00 23.1 24 Nordeste 43 Nordeste 0 -- -- 64
2018-11-09 13:00:00 23 19 Nordeste 40 Nordeste 0 -- -- 66
2018-11-09 12:00:00 22.2 20 Nordeste 37 Nordeste 0 -- -- 69
2018-11-09 11:00:00 22.9 19 Nordeste 30 Nordeste 0 -- -- 65
2018-11-09 10:00:00 22.9 17 Nordeste 30 Nordeste 0 -- -- 62
2018-11-09 09:00:00 21.3 18 Nordeste 32 Nordeste 0 -- -- 67
2018-11-09 08:00:00 20.2 7 Nordeste 26 Nordeste 0 -- -- 66
2018-11-09 07:00:00 20.3 12 Nordeste 22 Nordeste 0 -- -- 65
2018-11-09 06:00:00 20.9 10 Nordeste 18 Nordeste 0 -- -- 62
2018-11-09 05:00:00 20.7 7 Este 22 Nordeste 0 -- -- 59
2018-11-09 04:00:00 20.2 14 Nordeste 23 Nordeste 0 -- -- 65
2018-11-09 03:00:00 19.6 11 Nordeste 23 Nordeste 0 -- -- 68
2018-11-09 02:00:00 19.9 15 Nordeste 38 Nordeste 0 -- -- 69
2018-11-09 01:00:00 20.4 20 Norte 32 Nordeste 0 -- -- 68
2018-11-09 00:00:00 20.4 18 Nordeste 33 Nordeste 0 -- -- 68